FW0639 Weather Reports


time (UTC)temp
F
wind
direction
speed
knots
gust
knots
rain 1hr
in
rain 24hr
in
rain mn
in
humidity
%
barometer
mb
20260504050132 46 37 0.9 1.7 0.00 0.00 0.00 59 1005.6
20260504045058 47 35 0.0 0.0 0.00 0.00 0.00 59 1005.5
20260504044035 47 32 0.0 0.9 0.00 0.00 0.00 58 1005.5
20260504043010 47 29 0.0 1.7 0.00 0.00 0.00 60 1005.5
20260504041954 48 26 0.0 0.0 0.00 0.00 0.00 57 1005.5
20260504041014 48 22 0.9 1.7 0.00 0.00 0.00 57 1005.3
20260504034902 50 10 0.9 1.7 0.00 0.00 0.00 54 1005.4
20260504032741 53 1 0.0 1.7 0.00 0.00 0.00 47 1005.3
20260504031746 55 359 0.0 1.7 0.00 0.00 0.00 44 1005.2
20260504030739 57 351 0.0 1.7 0.00 0.00 0.00 41 1005.1
20260504025715 59 355 0.0 0.0 0.00 0.00 0.00 38 1005.1
20260504024644 60 351 0.0 0.0 0.00 0.00 0.00 38 1005.0
20260504023654 62 347 0.0 0.0 0.00 0.00 0.00 32 1004.8
20260504022640 63 345 0.0 0.0 0.00 0.00 0.00 31 1004.8
20260504021608 64 345 0.9 3.5 0.00 0.00 0.00 30 1004.8
20260504020540 65 343 0.9 2.6 0.00 0.00 0.00 29 1004.8
20260504015539 66 342 0.0 0.9 0.00 0.00 0.00 30 1004.7
20260504014526 67 339 0.0 0.0 0.00 0.00 0.00 29 1004.8
20260504013533 67 340 0.9 8.7 0.00 0.00 0.00 26 1004.8
20260504012518 68 353 0.9 4.3 0.00 0.00 0.00 26 1004.8
20260504010321 70 33 1.7 10.4 0.00 0.00 0.00 26 1004.9
20260504005301 70 41 1.7 9.6 0.00 0.00 0.00 26 1004.9
20260504004243 71 70 1.7 7.8 0.00 0.00 0.00 27 1004.9
20260504003248 72 101 2.6 7.8 0.00 0.00 0.00 26 1005.0
20260504002255 72 93 1.7 11.3 0.00 0.00 0.00 26 1005.1
20260504000127 72 113 1.7 11.3 0.00 0.00 0.00 28 1005.1
20260503235126 72 107 2.6 11.3 0.00 0.00 0.00 27 1005.2
20260503232944 73 95 3.5 13.9 0.00 0.00 0.00 26 1005.3
20260503231925 73 91 2.6 13.9 0.00 0.00 0.00 25 1005.3
20260503230912 73 115 2.6 9.6 0.00 0.00 0.00 25 1005.4
20260503224828 72 68 2.6 9.6 0.00 0.00 0.00 24 1005.7
20260503223810 72 54 2.6 9.6 0.00 0.00 0.00 25 1005.9
20260503222824 72 210 1.7 7.0 0.00 0.00 0.00 25 1006.0
20260503221801 72 45 1.7 9.6 0.00 0.00 0.00 27 1006.3
20260503220755 72 27 2.6 11.3 0.00 0.00 0.00 27 1006.4
20260503215810 73 56 2.6 11.3 0.00 0.00 0.00 27 1006.4
20260503214747 73 73 2.6 9.6 0.00 0.00 0.00 25 1006.7
20260503213727 72 59 1.7 7.0 0.00 0.00 0.00 27 1006.8
20260503212747 73 72 2.6 8.7 0.00 0.00 0.00 25 1007.0
20260503211716 73 49 1.7 13.0 0.00 0.00 0.00 27 1007.1
20260503210731 72 45 5.2 13.0 0.00 0.00 0.00 26 1007.4
20260503205704 72 49 2.6 9.6 0.00 0.00 0.00 25 1007.5
20260503204653 72 34 2.6 7.8 0.00 0.00 0.00 25 1007.7
20260503203638 72 28 2.6 10.4 0.00 0.00 0.00 26 1008.0
20260503202642 72 43 2.6 12.2 0.00 0.00 0.00 26 1008.0
20260503201649 71 32 3.5 12.2 0.00 0.00 0.00 25 1008.2
20260503200619 71 28 3.5 12.2 0.00 0.00 0.00 24 1008.2
20260503195548 71 31 5.2 14.8 0.00 0.00 0.00 25 1008.3
20260503194524 71 7 3.5 14.8 0.00 0.00 0.00 25 1008.4
20260503193511 71 31 2.6 9.6 0.00 0.00 0.00 24 1008.7
20260503192459 71 28 3.5 11.3 0.00 0.00 0.00 24 1009.0
20260503191444 71 20 3.5 11.3 0.00 0.00 0.00 28 1009.4
20260503190446 71 18 1.7 7.0 0.00 0.00 0.00 27 1009.5
20260503185448 70 12 2.6 9.6 0.00 0.00 0.00 26 1009.5
20260503183335 70 72 1.7 8.7 0.00 0.00 0.00 27 1009.8
20260503180022 68 226 0.9 6.1 0.00 0.00 0.00 36 1010.4
20260503175045 67 226 1.7 6.1 0.00 0.00 0.00 35 1010.5
20260503174029 67 181 0.9 7.8 0.00 0.00 0.00 36 1010.7
20260503173044 66 224 1.7 7.8 0.00 0.00 0.00 36 1010.9
20260503172020 66 221 1.7 7.8 0.00 0.00 0.00 35 1011.0
20260503171028 66 221 1.7 7.8 0.00 0.00 0.00 35 1011.2
20260503160103 61 27 0.9 7.0 0.00 0.00 0.00 51 1011.9
20260503150120 50 91 0.0 0.9 0.00 0.00 0.00 77 1012.5
20260503130803 38 61 0.0 0.0 0.00 0.00 0.00 90 1013.2
20260503110411 39 235 0.0 0.0 0.00 0.00 0.00 88 1013.7
20260503080941 47 28 0.9 4.3 0.00 0.00 0.00 78 1014.8
20260503072921 46 36 1.7 4.3 0.00 0.00 0.00 76 1015.6
20260503071936 46 30 0.0 3.5 0.00 0.00 0.00 76 1015.3
20260503070942 46 30 0.0 0.0 0.00 0.00 0.00 75 1015.7
20260503054925 45 44 0.0 0.0 0.00 0.00 0.00 74 1015.0
20260503053927 46 41 0.0 0.0 0.00 0.00 0.00 74 1015.1